This is the latest recevied weather packets stored in our database for station/object IZ1UQG-N2. If no packets are shown the sender has not sent any weather packets the latest 10 day(s).
| Time | Temp. | Humidity | Pressure | Rain* | Wind** | Luminosity | Snow |
|---|---|---|---|---|---|---|---|
| 1777736643 | 22.22° C | 41% | 1018 hPa | 0 mm | - | 424 W/m² | - |
| 1777736643 | 22.22° C | 41% | 1018 hPa | 0 mm | - | 424 W/m² | - |
| 1777736583 | 22.22° C | 40% | 1018 hPa | 0 mm | - | 424 W/m² | - |
| 1777736525 | 22.22° C | 40% | 1018 hPa | 0 mm | - | 418 W/m² | - |
| 1777736476 | 22.22° C | 41% | 1018.2 hPa | 0 mm | - | 406 W/m² | - |
| 1777736464 | 22.78° C | 40% | 1018.1 hPa | 0 mm | - | 406 W/m² | - |
| 1777736461 | 22.78° C | 40% | 1018.1 hPa | 0 mm | - | 406 W/m² | - |
| 1777736416 | 22.22° C | 41% | 1018.2 hPa | 0 mm | - | 415 W/m² | - |
| 1777736403 | 22.78° C | 41% | 1018.1 hPa | 0 mm | - | 404 W/m² | - |
| 1777736356 | 22.22° C | 41% | 1018.2 hPa | 0 mm | - | 420 W/m² | - |
| 1777736343 | 22.78° C | 41% | 1018.1 hPa | 0 mm | - | 406 W/m² | - |
| 1777736283 | 22.78° C | 41% | 1018.2 hPa | 0 mm | - | 434 W/m² | - |
| 1777736282 | 22.78° C | 41% | 1018.2 hPa | 0 mm | - | 434 W/m² | - |
| 1777736224 | 22.22° C | 41% | 1018.2 hPa | 0 mm | - | 406 W/m² | - |
| 1777736164 | 22.22° C | 41% | 1018.2 hPa | 0 mm | - | 415 W/m² | - |
| 1777736104 | 22.22° C | 41% | 1018.2 hPa | 0 mm | - | 420 W/m² | - |
| 1777736101 | 22.22° C | 41% | 1018.2 hPa | 0 mm | - | 420 W/m² | - |
| 1777736043 | 22.22° C | 41% | 1018.3 hPa | 0 mm | - | 410 W/m² | - |
| 1777735983 | 22.22° C | 41% | 1018.2 hPa | 0 mm | - | 418 W/m² | - |
| 1777735923 | 22.22° C | 41% | 1018.2 hPa | 0 mm | - | 397 W/m² | - |
| 1777735921 | 22.22° C | 41% | 1018.3 hPa | 0 mm | - | 410 W/m² | - |
| 1777735875 | 22.22° C | 41% | 1018.3 hPa | 0 mm | - | 406 W/m² | - |
| 1777735865 | 22.22° C | 41% | 1018.3 hPa | 0 mm | - | 410 W/m² | - |
| 1777735805 | 22.22° C | 41% | 1018.2 hPa | 0 mm | - | 410 W/m² | - |
| 1777735745 | 22.22° C | 41% | 1018.3 hPa | 0 mm | - | 390 W/m² | - |
* Rain latest hour (hover to see other rain measurements)
** Current wind speed in m/s (hover to see current wind gust speed)